DW4153 Weather Reports


Display with metric or nautical units.
time (UTC)temp
F
wind
direction
speed
MPH
gust
MPH
rain 1hr
in
rain 24hr
in
rain mn
in
humidity
%
barometer
mb
20260507082032 54 67 1.0 5.0 0.00 0.04 0.00 66 1014.1
20260507075043 52 154 0.0 5.0 0.00 0.04 0.00 69 1014.0
20260507072042 51 116 0.0 4.0 0.00 0.04 0.00 69 1013.9
20260507065039 50 107 0.0 6.0 0.00 0.04 0.00 70 1013.5
20260507062037 48 71 0.0 2.0 0.00 0.04 0.00 68 1013.4
20260507055025 45 41 0.0 2.0 0.00 0.04 0.00 54 1013.2
20260507052025 43 6 0.0 0.0 0.00 0.04 0.00 55 1012.9
20260507042037 43 13 0.0 1.0 0.00 0.04 0.00 54 1012.3
20260507035032 43 27 0.0 0.0 0.00 0.04 0.00 55 1012.0
20260507032027 43 75 0.0 2.0 0.00 0.04 0.00 58 1011.8
20260507025025 44 65 0.0 2.0 0.00 0.04 0.00 59 1011.5
20260507012040 44 38 0.0 1.0 0.00 0.04 0.00 60 1010.9
20260507005035 44 41 0.0 0.0 0.00 0.04 0.00 60 1010.8
20260507002030 45 139 0.0 2.0 0.00 0.04 0.00 63 1010.8
20260506235043 45 324 0.0 2.0 0.00 0.04 0.00 62 1010.6
20260506232042 46 146 0.0 0.0 0.00 0.04 0.00 61 1010.8
20260506222043 46 265 0.0 1.0 0.00 0.04 0.00 61 1010.3
20260506215043 46 143 1.0 3.0 0.00 0.04 0.01 61 1010.1
20260506212039 47 290 0.0 1.0 0.00 0.04 0.01 58 1009.9
20260506205039 47 237 0.0 4.0 0.00 0.04 0.01 57 1009.7
20260506202036 47 25 0.0 3.0 0.00 0.04 0.01 53 1009.6
20260506195035 47 25 0.0 0.0 0.00 0.04 0.01 51 1009.3
20260506192035 48 64 0.0 1.0 0.00 0.04 0.01 54 1009.0
20260506185031 48 107 0.0 2.0 0.00 0.04 0.01 54 1008.7
20260506182036 48 325 0.0 2.0 0.00 0.04 0.01 54 1008.4
20260506175028 49 33 0.0 2.0 0.00 0.04 0.01 54 1008.2
20260506172026 49 276 1.0 4.0 0.00 0.04 0.01 56 1008.1
20260506165026 49 19 0.0 2.0 0.04 0.04 0.01 59 1007.8
20260506162041 50 354 0.0 3.0 0.04 0.04 0.01 64 1007.7
20260506155038 51 66 0.0 1.0 0.00 0.00 0.00 71 1007.8
20260506152037 52 59 1.0 5.0 0.00 0.00 0.00 73 1007.8
20260506145036 53 91 0.0 4.0 0.00 0.00 0.00 71 1007.9
20260506135026 54 18 0.0 5.0 0.00 0.00 0.00 71 1007.7
20260506132042 55 154 0.0 4.0 0.00 0.00 0.00 70 1007.6
20260506125038 56 270 0.0 6.0 0.00 0.00 0.00 62 1007.6
20260506122035 56 65 2.0 6.0 0.00 0.00 0.00 63 1007.6
20260506115025 54 356 1.0 6.0 0.00 0.00 0.00 66 1007.5
20260506112044 54 135 0.0 5.0 0.00 0.00 0.00 68 1007.4
20260506105039 53 284 0.0 3.0 0.00 0.00 0.00 70 1007.5
20260506102037 52 49 0.0 4.0 0.00 0.00 0.00 70 1007.4
20260506092037 51 77 0.0 7.0 0.00 0.00 0.00 69 1007.1
20260506085036 51 23 0.0 1.0 0.00 0.04 0.00 70 1007.1